Aérodrome :
LOGIN :

S'inscrire | Disclaimer

   EN    FR    IT 

 










Légende :    VFR   VFR Marginal   IFR   IFR Intensif   IFR Très Intensif
Visi : 
Plafond : 
>= 8 km
>= 3000ft
5 à 8 km
1000 à 3000 ft
1500m à 5 km
500 à 1000 ft
800 à 1500m
200 à 500 ft
< 800m
< 200 ft
Symboles :   Orages  Brouillard  Fortes neiges  Fortes précipitations  Vent > 20 kt
SIGMETs :   Divers  Orages  Givrage  Turbulence  Onde Orograph.  Cendres Volcan.







- Altitude de l'aérodrome : 56 ft
- Code IATA : BZR
- Voir les cartes d'approche


LFMU - Beziers / Vias

DERNIER METAR :
  • 171700Z AUTO 18010KT CAVOK 28/18 Q1016 NOSIG

METARs EXPIRÉS :
  • 171630Z AUTO 19013KT CAVOK 29/19 Q1016 BECMG VRB02KT
  • 171600Z AUTO 18010KT CAVOK 31/17 Q1016 NOSIG
  • 171530Z AUTO 19009KT 160V230 CAVOK 34/16 Q1016 NOSIG
  • 171500Z AUTO 21010KT 170V240 CAVOK 35/15 Q1016 NOSIG
  • 171430Z AUTO 19009KT 160V230 CAVOK 34/16 Q1016 NOSIG

TAF TAF LFMU
Valide du 17 à 15h jusqu'au 18 à 15h UTC


171400Z 1715/1815 21012KT CAVOK
BECMG 1718/1720 VRB02KT
BECMG 1810/1812 14012KT
TEMPO 1812/1815 1200 BR BKN003
ATIS : +33 4 67 90 88 88
Pas de NOTAMs connus pour ce terrain.



MET'MAP, la Météo Aéronautique d'un coup d'oeil ! - Copyright ORBIFLY Décembre 2007 - Disclaimer

ORBIFLY MET'MAP TEAM :

Programmation & Développement : Alexandra Zaïnal
Conception & Développement : Baudouin d'Aumeries
Co-Programmation & Développement : Marc-Olivier Méhu
Soutien technique & logistique : Manuel Goepfert

Contact : metmap@orbifly.com




SOURCES & CREDITS :

   NOAA